Find Starlink 35104

NORAD ID: 65631 Int'l Des: 2025-210 Owner: SPXS Country: US Constellation: starlink operational
LEOCIRCULAR

当前视图

正在加载3D地球...

About Starlink 35104

Starlink 35104 (NORAD 65631) is a starlink constellation satellite (v2 mini) launched Sep 18, 2025 by SPXS of US. It operates in LEO, CIRCULAR orbit with a mass of 575.00 kg.

即将过境

Passes for default location (London). Set your location on the main map for personalized predictions.

高度历史

Loading altitude history...

两行轨道根数

1 65631U 25210K 26264.28863216 .00011542 00000-0 35220-3 0 9995
2 65631 53.1590 113.9001 0000653 90.0314 270.0763 15.34401170 57735
Epoch: Sep 21, 2026 • Age: 5 hours

当前状态

高度 463.6 km
远地点 / 近地点 N/A
速度 7.64 km/s
星下点 0.27°N, 61.45°W
发射日期 Sep 18, 2025
运行时间 1 year
类型 internet

技术详情

分类 Payload
质量 575.00 kg
干质量 530.00 kg
长度 0.30 m
跨度 29.00 m
形状 ? Box + pan
制造商 SPXS
平台类型 Starlink V2MO
阶段状态 In Orbit
所有者/国家 SPXS/US

Most Searched